This is the latest recevied weather packets stored in our database for station/object N9BID. If no packets are shown the sender has not sent any weather packets the latest 1 day(s).
| Time | Temp. | Humidity | Pressure | Rain* | Wind** | Luminosity | Snow |
|---|---|---|---|---|---|---|---|
| 1778038880 | 1.11° C | 85% | 1003.2 hPa | 0 mm | - | 0 W/m² | - |
| 1778038577 | 1.11° C | 82% | 1003 hPa | 0 mm | - | 0 W/m² | - |
| 1778038274 | 1.67° C | 81% | 1003.1 hPa | 0 mm | - | 0 W/m² | - |
| 1778037668 | 2.22° C | 79% | 1003 hPa | 0 mm | - | 0 W/m² | - |
| 1778037062 | 2.22° C | 76% | 1003.1 hPa | 0 mm | - | 0 W/m² | - |
| 1778036761 | 2.78° C | 76% | 1003 hPa | 0 mm | - | 0 W/m² | - |
| 1778036457 | 2.78° C | 75% | 1003 hPa | 0 mm | - | 0 W/m² | - |
| 1778036154 | 2.78° C | 76% | 1003.1 hPa | 0 mm | - | 0 W/m² | - |
| 1778035850 | 2.78° C | 73% | 1003 hPa | 0 mm | - | 0 W/m² | - |
| 1778035548 | 3.33° C | 72% | 1002.6 hPa | 0 mm | - | 0 W/m² | - |
| 1778035244 | 3.33° C | 72% | 1003.1 hPa | 0 mm | - | 0 W/m² | - |
| 1778034940 | 3.33° C | 72% | 1002.9 hPa | 0 mm | - | 0 W/m² | - |
| 1778034638 | 3.33° C | 73% | 1002.6 hPa | 0 mm | - | 0 W/m² | - |
| 1778034335 | 3.33° C | 74% | 1002.5 hPa | 0 mm | - | 0 W/m² | - |
| 1778034032 | 2.78° C | 74% | 1002.6 hPa | 0 mm | - | 0 W/m² | - |
| 1778033730 | 3.33° C | 75% | 1002.6 hPa | 0 mm | - | 0 W/m² | - |
| 1778033427 | 3.33° C | 74% | 1002.3 hPa | 0 mm | - | 0 W/m² | - |
| 1778032822 | 3.33° C | 72% | 1002.6 hPa | 0 mm | - | 0 W/m² | - |
| 1778032519 | 3.33° C | 72% | 1002.3 hPa | 0 mm | - | 0 W/m² | - |
| 1778032216 | 3.89° C | 71% | 1002.4 hPa | 0 mm | - | 0 W/m² | - |
| 1778031609 | 3.89° C | 69% | 1002.2 hPa | 0 mm | - | 0 W/m² | - |
| 1778030397 | 5° C | 65% | 1001.9 hPa | 0 mm | - | 0 W/m² | - |
| 1778029790 | 6.11° C | 64% | 1001.9 hPa | 0 mm | - | 1 W/m² | - |
| 1778029490 | 6.11° C | 63% | 1001.9 hPa | 0 mm | - | 4 W/m² | - |
| 1778029185 | 6.11° C | 62% | 1001.8 hPa | 0 mm | - | 4 W/m² | - |
* Rain latest hour (hover to see other rain measurements)
** Current wind speed in m/s (hover to see current wind gust speed)